www.pogodaiklimat.ru

Погода и климат >> Архив погоды >> Австралия >> Moomba Airport


ПОГОДА в Moomba Airport

  • Прогноз погоды в Moomba Airport
  • Монитор погоды в Moomba Airport
  • Климат города

АРХИВ ПОГОДЫ в Moomba Airport

Время (UTC), дата Ветер
(напр.,м/с)
 
Видим.   Явления Облачность Т
(С)
Тd
(С)
f
(%)
Тe
(С)
Тes
(С)
Комфортность P
(гПа)
Po
(гПа)
Тmin
(С)
Tmax
(С)
R
(мм)
S
(см)
22 18.03 В 4 н/о н/о +26.4 +15.8 52 +30 +30 душно 1013.1 1008.7
23 18.03 В 6 н/о н/о +27.8 +16.1 49 +31 +31 душно 1013.0 1008.6
00 19.03 В 6 н/о н/о +29.8 +16.2 44 +33 +33 душно 1012.6 1008.2
01 19.03 В 6 н/о н/о +30.8 +15.6 40 +33 +33 душно 1012.2 1007.8
02 19.03 ЮВ 6 н/о н/о +30.5 +14.6 38 +33 +33 душно 1011.4 1007.0
03 19.03 ЮВ 5 н/о н/о +31.9 +14.5 35 +34 +34 душно 1010.4 1006.0
04 19.03 ЮВ 5 н/о н/о +32.9 +13.5 31 +34 +34 очень
жарко
1009.5 1005.1
05 19.03 ЮВ 4 н/о н/о +33.7 +12.7 28 +34 +34 очень
жарко
1008.7 1004.3
06 19.03 Ю 5 н/о н/о +33.9 +12.8 28 +34 +34 очень
жарко
1008.1 1003.7
07 19.03 ЮВ 5 н/о н/о +34.1 +13.0 28 +35 +35 очень
жарко
1007.7 1003.3
08 19.03 В 3 н/о н/о +33.0 +12.6 29 +33 +33 жарко 1007.6 1003.2
09 19.03 ЮВ 6 н/о н/о +32.8 +12.9 30 +33 +33 жарко 1007.9 1003.5
10 19.03 Ю 3 н/о н/о +31.8 +12.6 31 +32 +32 жарко 1008.6 1004.2
11 19.03 В 8 н/о н/о +29.5 +16.7 46 +33 +33 душно 1009.3 1004.9
12 19.03 В 7 н/о н/о +28.1 +16.7 50 +32 +32 душно 1009.7 1005.3
13 19.03 В 5 н/о н/о +27.4 +16.7 52 +31 +31 душно 1009.9 1005.5
14 19.03 СВ 3 н/о н/о +26.6 +16.5 54 +30 +30 душно 1009.7 1005.3
15 19.03 СВ 4 н/о н/о +26.7 +16.6 54 +30 +30 душно 1009.4 1005.0
16 19.03 СВ 4 н/о н/о +26.4 +16.9 56 +30 +30 душно 1009.2 1004.8
17 19.03 СВ 3 н/о н/о +26.3 +16.8 56 +30 +30 душно 1008.9 1004.5
18 19.03 С 2 н/о н/о +25.0 +16.2 58 +28 +28 жарко 1008.8 1004.4
19 19.03 С 2 н/о н/о +23.8 +16.1 62 +27 +27 жарко 1008.5 1004.1
20 19.03 С 2 н/о н/о +22.7 +15.0 62 +27 +27 душно 1008.9 1004.5
21 19.03 С 1 н/о н/о +22.7 +14.8 61 +26 +26 жарко 1009.1 1004.7
23 19.03 ЮВ 2 н/о н/о +28.4 +16.7 49 +32 +32 душно 1010.1 1005.7
22 19.03 В 2 н/о н/о +26.3 +16.5 55 +30 +30 душно 1009.5 1005.1
00 20.03 ЮВ 3 н/о н/о +30.0 +16.4 44 +33 +33 душно 1010.2 1005.8
01 20.03 С 2 н/о н/о +31.9 +16.2 39 +35 +35 очень
душно
1010.0 1005.6
02 20.03 ЮЗ 2 н/о н/о +32.3 +14.9 35 +34 +34 душно 1009.3 1004.9
03 20.03 СЗ 3 н/о н/о +33.4 +14.9 33 +35 +35 душно 1008.4 1004.0
05 20.03 ЮЗ 4 н/о н/о +34.5 +14.9 31 +36 +36 душно 1006.9 1002.5
04 20.03 Ю 4 н/о н/о +34.4 +14.8 31 +36 +36 душно 1007.4 1003.0
06 20.03 ЮЗ 5 н/о н/о +35.4 +14.6 29 +37 +37 очень
душно
1006.4 1002.0
07 20.03 Ю 4 н/о н/о +34.7 +15.1 31 +36 +36 душно 1006.3 1001.9
08 20.03 ЮЗ 6 н/о н/о +34.4 +14.8 31 +36 +36 душно 1006.4 1002.0
09 20.03 Ю 4 н/о н/о +33.7 +14.7 32 +35 +35 очень
жарко
1006.8 1002.4
11 20.03 ЮВ 5 н/о н/о +31.9 +14.5 35 +34 +34 душно 1008.1 1003.7
10 20.03 Ю 4 н/о н/о +32.7 +14.8 34 +34 +34 очень
жарко
1007.6 1003.2
12 20.03 В 3 н/о н/о +29.1 +13.3 38 +31 +31 жарко 1008.4 1004.0
13 20.03 В 3 н/о н/о +28.1 +13.6 41 +30 +30 жарко 1008.2 1003.8
14 20.03 В 3 н/о н/о +27.2 +13.2 42 +29 +29 жарко 1008.0 1003.6
15 20.03 В 2 н/о н/о +27.6 +13.2 41 +29 +29 жарко 1007.8 1003.4
17 20.03 СВ 2 н/о н/о +26.1 +13.2 45 +28 +28 жарко 1007.5 1003.1
16 20.03 В 2 н/о н/о +27.4 +13.4 42 +29 +29 жарко 1007.8 1003.4
18 20.03 СВ 1 н/о н/о +25.4 +12.9 46 +27 +27 жарко 1007.6 1003.2
19 20.03 штиль 0 н/о н/о +24.6 +12.5 47 +26 +26 жарко 1007.9 1003.5
20 20.03 штиль 0 н/о н/о +24.2 +12.2 47 +26 +26 жарко 1008.3 1003.9
21 20.03 СВ 1 н/о н/о +24.3 +12.6 48 +26 +26 жарко 1008.5 1004.1
23 20.03 СВ 5 н/о н/о +31.2 +13.9 35 +33 +33 жарко 1010.1 1005.7
22 20.03 С 3 н/о н/о +28.5 +13.6 40 +30 +30 жарко 1009.1 1004.7
00 21.03 С 4 н/о н/о +33.5 +14.0 31 +35 +35 душно 1010.4 1006.0
01 21.03 С 4 н/о н/о +35.2 +13.9 28 +36 +36 очень
жарко
1010.1 1005.7
02 21.03 ЮЗ 3 н/о н/о +36.3 +11.9 23 +36 +36 очень
жарко
1009.8 1005.4
03 21.03 ЮЗ 4 н/о н/о +37.6 +11.5 21 +37 +37 очень
жарко
1009.0 1004.6
04 21.03 З 2 н/о н/о +38.9 +10.3 18 +38 +38 очень
жарко
1008.3 1003.9
05 21.03 Ю 3 н/о н/о +39.0 +9.5 17 +37 +37 очень
жарко
1007.7 1003.3
06 21.03 Ю 4 н/о н/о +39.0 +8.6 16 +37 +37 очень
жарко
1007.1 1002.7
07 21.03 ЮЗ 3 н/о н/о +39.0 +8.6 16 +37 +37 очень
жарко
1007.0 1002.6
08 21.03 Ю 3 н/о н/о +38.4 +9.0 17 +37 +37 очень
жарко
1007.0 1002.6
09 21.03 ЮЗ 4 н/о н/о +36.7 +8.5 18 +35 +35 очень
жарко
1007.4 1003.0
10 21.03 ЮЗ 3 н/о н/о +34.6 +9.1 21 +33 +33 жарко 1008.0 1003.6
11 21.03 ЮЗ 4 н/о н/о +32.8 +8.9 23 +32 +32 жарко 1009.0 1004.6
12 21.03 ЮЗ 4 н/о н/о +31.0 +8.7 25 +30 +30 жарко 1009.7 1005.3
13 21.03 ЮЗ 4 н/о н/о +30.7 +9.0 26 +30 +30 жарко 1009.9 1005.5
14 21.03 ЮЗ 4 н/о н/о +29.7 +9.3 28 +29 +29 жарко 1009.8 1005.4
15 21.03 ЮЗ 3 н/о н/о +28.5 +9.2 30 +28 +28 жарко 1009.7 1005.3
16 21.03 ЮЗ 5 н/о н/о +28.1 +9.9 32 +28 +28 жарко 1009.5 1005.1
17 21.03 ЮЗ 4 н/о н/о +27.4 +10.2 34 +28 +28 жарко 1009.4 1005.0
18 21.03 Ю 4 н/о н/о +26.5 +10.2 36 +27 +27 жарко 1009.9 1005.5
19 21.03 Ю 3 н/о н/о +25.0 +10.1 39 +26 +26 жарко 1010.2 1005.8
20 21.03 ЮЗ 3 н/о н/о +23.9 +9.5 40 +25 +25 комфорт 1010.9 1006.5
21 21.03 Ю 4 н/о н/о +23.1 +9.5 42 +25 +25 комфорт 1011.5 1007.1
22 21.03 Ю 3 н/о н/о +25.6 +9.8 37 +26 +26 жарко 1012.0 1007.6
23 21.03 Ю 6 н/о н/о +29.1 +10.3 31 +29 +29 жарко 1012.5 1008.1
00 22.03 Ю 6 н/о н/о +31.0 +9.3 26 +30 +30 жарко 1012.6 1008.2
02 22.03 Ю 4 н/о н/о +34.4 +8.9 21 +33 +33 жарко 1011.5 1007.1
01 22.03 Ю 5 н/о н/о +32.9 +9.7 24 +32 +32 жарко 1012.4 1008.0
03 22.03 Ю 5 н/о н/о +35.4 +8.3 19 +34 +34 очень
жарко
1010.7 1006.3
04 22.03 Ю 4 н/о н/о +36.4 +7.4 17 +34 +34 очень
жарко
1009.7 1005.3
05 22.03 ЮЗ 4 н/о н/о +37.0 +6.1 15 +34 +34 очень
жарко
1009.0 1004.6
06 22.03 ЮЗ 4 н/о н/о +37.5 +4.4 13 +35 +35 очень
жарко
1008.5 1004.1
08 22.03 ЮЗ 5 н/о н/о +36.6 +3.7 13 +34 +34 очень
жарко
1008.5 1004.1
07 22.03 ЮЗ 5 н/о н/о +37.5 +3.3 12 +34 +34 очень
жарко
1008.3 1003.9
09 22.03 ЮЗ 4 н/о н/о +34.4 +5.0 16 +32 +32 жарко 1008.8 1004.4
10 22.03 З 3 н/о н/о +30.7 +4.4 19 +29 +29 жарко 1009.6 1005.2
11 22.03 ЮЗ 3 н/о н/о +29.7 +5.1 21 +28 +28 жарко 1010.4 1006.0
12 22.03 Ю 2 н/о н/о +28.8 +6.2 24 +28 +28 жарко 1010.9 1006.5
14 22.03 Ю 3 н/о н/о +25.4 +5.6 28 +25 +25 комфорт 1011.1 1006.7
13 22.03 Ю 4 н/о н/о +27.9 +6.1 25 +27 +27 жарко 1011.2 1006.8
15 22.03 Ю 4 н/о н/о +25.8 +6.9 30 +26 +26 жарко 1010.7 1006.3
16 22.03 Ю 4 н/о н/о +25.0 +7.2 32 +25 +25 комфорт 1010.2 1005.8
17 22.03 Ю 4 н/о н/о +24.4 +9.2 38 +25 +25 комфорт 1010.0 1005.6
18 22.03 Ю 4 н/о н/о +23.7 +10.7 44 +25 +25 комфорт 1009.8 1005.4
20 22.03 В 3 н/о н/о +20.1 +9.9 52 +22 +22 комфорт 1011.6 1007.2
19 22.03 Ю 5 н/о н/о +23.2 +11.9 49 +26 +26 жарко 1010.2 1005.8
21 22.03 ЮВ 4 н/о н/о +22.1 +12.9 56 +25 +25 комфорт 1011.9 1007.5
22 22.03 Ю 5 н/о н/о +24.4 +14.2 53 +27 +27 жарко 1012.5 1008.1
23 22.03 Ю 7 н/о н/о +26.4 +15.1 50 +29 +29 жарко 1013.2 1008.8
00 23.03 ЮВ 5 н/о н/о +28.4 +15.7 46 +31 +31 душно 1013.1 1008.7
01 23.03 ЮВ 4 н/о н/о +31.0 +14.6 37 +33 +33 душно 1012.9 1008.5
02 23.03 ЮВ 4 н/о н/о +33.3 +12.3 28 +34 +34 очень
жарко
1011.9 1007.5
03 23.03 В 2 н/о н/о +35.0 +10.1 22 +34 +34 очень
жарко
1011.1 1006.7
04 23.03 ЮЗ 3 н/о н/о +34.8 +9.3 21 +33 +33 жарко 1010.2 1005.8
05 23.03 Ю 4 н/о н/о +35.9 +9.4 20 +35 +35 очень
жарко
1009.5 1005.1
06 23.03 Ю 2 н/о н/о +36.3 +8.2 18 +34 +34 очень
жарко
1009.0 1004.6
07 23.03 Ю 4 н/о н/о +35.8 +7.0 17 +34 +34 очень
жарко
1008.8 1004.4
08 23.03 Ю 3 н/о н/о +35.6 +6.8 17 +33 +33 жарко 1009.0 1004.6
09 23.03 Ю 4 н/о н/о +34.0 +7.9 20 +32 +32 жарко 1009.3 1004.9
10 23.03 Ю 4 н/о н/о +31.3 +8.9 25 +30 +30 жарко 1009.9 1005.5
11 23.03 Ю 4 н/о н/о +30.1 +10.6 30 +30 +30 жарко 1010.4 1006.0
12 23.03 Ю 5 н/о н/о +29.3 +12.3 35 +30 +30 жарко 1010.9 1006.5
13 23.03 Ю 5 н/о н/о +28.4 +12.7 38 +30 +30 жарко 1011.0 1006.6
14 23.03 Ю 5 н/о н/о +27.6 +13.5 42 +29 +29 жарко 1010.8 1006.4
15 23.03 Ю 4 н/о н/о +26.9 +14.0 45 +29 +29 жарко 1010.7 1006.3
16 23.03 Ю 4 н/о н/о +25.9 +14.1 48 +28 +28 жарко 1010.3 1005.9
17 23.03 Ю 4 н/о н/о +25.5 +14.3 50 +28 +28 жарко 1010.0 1005.6
18 23.03 Ю 3 н/о н/о +24.7 +14.2 52 +27 +27 жарко 1009.8 1005.4
19 23.03 Ю 4 н/о н/о +24.3 +14.1 53 +27 +27 жарко 1009.9 1005.5
20 23.03 Ю 3 н/о н/о +23.7 +13.8 54 +26 +26 жарко 1010.1 1005.7
21 23.03 Ю 4 н/о н/о +23.5 +13.7 54 +26 +26 жарко 1010.0 1005.6
23 23.03 ЮВ 5 н/о н/о +29.1 +12.9 37 +30 +30 жарко 1010.8 1006.4
22 23.03 Ю 4 н/о н/о +26.0 +13.5 46 +28 +28 жарко 1010.3 1005.9
00 24.03 В 6 н/о н/о +33.2 +11.7 27 +33 +33 жарко 1010.8 1006.4
01 24.03 В 4 н/о н/о +35.4 +10.4 22 +34 +34 очень
жарко
1010.4 1006.0
02 24.03 В 3 н/о н/о +37.2 +10.5 20 +36 +36 очень
жарко
1009.6 1005.2
03 24.03 СВ 3 н/о н/о +38.3 +10.6 19 +37 +37 очень
жарко
1008.4 1004.0
05 24.03 С 4 н/о н/о +40.4 +7.8 14 +38 +38 очень
жарко
1006.7 1002.3
04 24.03 СВ 3 н/о н/о +40.2 +9.6 16 +39 +39 очень
жарко
1007.4 1003.0
06 24.03 СЗ 4 н/о н/о +40.8 +7.0 13 +38 +38 очень
жарко
1006.4 1002.0
07 24.03 СЗ 3 н/о н/о +39.7 +7.2 14 +37 +37 очень
жарко
1006.5 1002.1
08 24.03 З 1 н/о н/о +39.4 +7.0 14 +37 +37 очень
жарко
1006.7 1002.3
09 24.03 Ю 1 н/о н/о +37.4 +7.3 16 +35 +35 очень
жарко
1007.1 1002.7
11 24.03 Ю 4 н/о н/о +34.1 +6.4 18 +32 +32 жарко 1007.9 1003.5
10 24.03 ЮЗ 2 н/о н/о +34.1 +6.4 18 +32 +32 жарко 1007.5 1003.1
12 24.03 Ю 7 н/о н/о +33.4 +11.9 27 +33 +33 жарко 1008.4 1004.0
13 24.03 Ю 6 н/о н/о +32.3 +12.5 30 +33 +33 жарко 1008.7 1004.3
14 24.03 Ю 5 н/о н/о +31.1 +12.5 32 +32 +32 жарко 1008.8 1004.4
15 24.03 Ю 5 н/о н/о +30.1 +11.6 32 +31 +31 жарко 1008.6 1004.2
17 24.03 Ю 5 н/о н/о +29.3 +10.4 31 +29 +29 жарко 1008.1 1003.7
16 24.03 Ю 5 н/о н/о +29.6 +10.2 30 +30 +30 жарко 1008.4 1004.0
18 24.03 Ю 5 н/о н/о +28.8 +10.5 32 +29 +29 жарко 1008.0 1003.6
19 24.03 Ю 4 н/о н/о +28.0 +10.2 33 +28 +28 жарко 1008.3 1003.9
20 24.03 ЮВ 4 н/о н/о +28.0 +10.2 33 +28 +28 жарко 1008.5 1004.1
21 24.03 ЮВ 4 н/о н/о +27.5 +9.8 33 +28 +28 жарко 1009.1 1004.7
23 24.03 СВ 4 н/о н/о +32.6 +10.6 26 +32 +32 жарко 1010.4 1006.0
22 24.03 В 3 н/о н/о +27.7 +10.0 33 +28 +28 жарко 1009.8 1005.4
00 25.03 СВ 5 н/о н/о +37.5 +11.5 21 +37 +37 очень
жарко
1010.6 1006.2
01 25.03 С 4 н/о н/о +38.9 +12.6 21 +39 +39 очень
жарко
1010.3 1005.9
02 25.03 С 3 н/о н/о +40.2 +12.1 19 +40 +40 очень
жарко
1009.6 1005.2
03 25.03 З 4 н/о н/о +40.3 +12.2 19 +40 +40 очень
жарко
1008.7 1004.3
04 25.03 З 3 н/о н/о +40.5 +10.7 17 +39 +39 очень
жарко
1007.7 1003.3
05 25.03 В 3 н/о н/о +41.2 +10.4 16 +40 +40 очень
жарко
1007.0 1002.6
06 25.03 В 5 н/о н/о +41.4 +9.6 15 +40 +40 очень
жарко
1006.7 1002.3
07 25.03 Ю 4 н/о н/о +40.9 +10.1 16 +39 +39 очень
жарко
1006.7 1002.3
08 25.03 ЮЗ 2 н/о н/о +40.2 +9.6 16 +39 +39 очень
жарко
1006.8 1002.4
09 25.03 штиль 0 н/о н/о +38.2 +9.7 18 +37 +37 очень
жарко
1007.2 1002.8
10 25.03 СВ 2 н/о н/о +35.1 +9.5 21 +34 +34 очень
жарко
1008.0 1003.6
11 25.03 С 3 н/о н/о +33.0 +9.7 24 +32 +32 жарко 1008.8 1004.4
12 25.03 С 3 н/о н/о +33.7 +10.3 24 +33 +33 жарко 1009.2 1004.8
13 25.03 штиль 0 н/о н/о +31.7 +8.7 24 +31 +31 жарко 1009.4 1005.0
14 25.03 В 5 н/о н/о +33.7 +9.0 22 +32 +32 жарко 1009.5 1005.1
15 25.03 Ю 3 н/о н/о +31.8 +8.7 24 +31 +31 жарко 1008.9 1004.5
16 25.03 ЮВ 3 н/о н/о +31.1 +8.2 24 +30 +30 жарко 1008.6 1004.2
17 25.03 Ю 3 н/о н/о +30.5 +8.8 26 +30 +30 жарко 1008.4 1004.0
18 25.03 ЮВ 3 н/о н/о +30.0 +8.4 26 +29 +29 жарко 1008.7 1004.3
19 25.03 штиль 0 н/о н/о +28.1 +8.4 29 +28 +28 жарко 1009.0 1004.6
20 25.03 В 2 н/о н/о +28.0 +8.3 29 +28 +28 жарко 1009.6 1005.2
21 25.03 В 4 н/о н/о +27.5 +7.9 29 +27 +27 жарко 1010.4 1006.0
22 25.03 СВ 3 н/о н/о +30.9 +10.3 28 +31 +31 жарко 1010.8 1006.4

 

Местоположение метеостанции Moomba Airport (Южная Австралия, Австралия): широта -28.10 долгота 140.20 высота над уровнем моря 38 м.

В архиве по умолчанию представлена погода в Moomba Airport за последнюю неделю. Архивные данные за месяц целиком и за предыдущие месяцы, начиная с января 2011 года, Вы можете получить, выбрав интересующий диапазон дат из раскрывающегося списка и нажав кнопку "Ввод!".

Внимание! Время в таблицах - всемирное. Для получения местного времени необходимо прибавить поправку, которая в Moomba Airport равна 9.5 ч.

Смотрите также архив погоды в соседних городах и на ближайших метеорологических станциях:

Погода в Ballera Gas Field (Квинсленд, Австралия) (176 км)
Погода в Tibooburra Airport (Новый Южный Уэльс, Австралия) (235 км)
Погода в Birdsville Airport (Квинсленд, Австралия) (259 км)
Погода в Marree Aero (Южная Австралия, Австралия) (271 км)
Погода в Leigh Creek Airport (Южная Австралия, Австралия) (327 км)
Погода в Thargomindah Airport (Квинсленд, Австралия) (355 км)
Погода в Fowlers Gap Aws (Новый Южный Уэльс, Австралия) (362 км)
Погода в White Cliffs Aws (Новый Южный Уэльс, Австралия) (413 км)
Погода в Olympic Dam Aerodrome (Южная Австралия, Австралия) (417 км)
Погода в Broken Hill Airport (Новый Южный Уэльс, Австралия) (450 км)

Пояснения к столбцам:

Ветер - указаны скорость ветра в м/с - средняя за 10 мин, порывы в срок и между сроками (в фигурных скобках) и направление, откуда дует ветер: С - северный, СВ - северо-восточный, В - восточный, ЮВ - юго-восточный, Ю - южный, ЮЗ - юго-западный, З - западный, СЗ - северо-западный.
Видимость - горизонтальная дальность видимости в метрах или километрах. При видимости от 1 до 10 км при отсутствии осадков обычно наблюдается дымка, при ухудшении видимости до 1 км и менее - туман. В сухую погоду видимость может ухудшаться дымом, пылью или мглою.
Явления - указаны атмосферные явления, наблюдавшиеся в срок или в последний час перед сроком; фигурными скобками обозначены явления, наблюдавшиеся между сроками (за 1-3 часа до срока); квадратными скобками обозначены град или гололедные отложения с указанием их диаметра в мм.
Облачность - указаны через наклонную черту общая и нижняя облачность в баллах и высота нижней границы облаков в метрах; квадратными скобками обозначены формы облаков: Ci - перистые, Cs - перисто-слоистые, Cc - перисто-кучевые, Ac - высококучевые, As - высокослоистые, Sc - слоисто-кучевые, Ns - слоисто-дождевые, Cu - кучевые, Cb - кучево-дождевые. Подробнее классификацию облаков см. в Атласе облаков (PDF).
T - Температура воздуха - температура, измеренная на высоте 2 м над землей.
Td - Температура точки росы - температура, при понижении до которой содержащийся в воздухе водяной пар достигнет насыщения.
f - Относительная влажность воздуха - влажноcть воздуха, измеренная на высоте 2 м над землей.
Te - Эффективная температура - температура, которую ощущает одетый по сезону человек в тени. Характеристика душности погоды. При расчете учитывается влияние влажности воздуха и скорости ветра на теплоощущения человека.
Tes - Эффективная температура на солнце - температура, которую ощущает человек, с поправкой на солнечный нагрев. Характеристика знойности погоды. Зависит от высоты солнца над горизонтом, облачности и скорости ветра. Ночью, в пасмурную погоду, а также при ветре 12 м/с и более поправка равна нулю.
P - Атмосферное давление - приведенное к уровню моря атмосферное давление.
Po - Атмосферное давление - измеренное на уровне метеостанции атмосферное давление.
Tmin - Минимальная температура - минимум температуры воздуха на высоте 2 м над землей.
Tmax - Максимальная температура - максимум температуры воздуха на высоте 2 м над землей.
R - Количество осадков - Количество выпавших осадков, мм. При наведении курсора мыши на число - период времени, за который выпало указанное количество осадков.
S - Снежный покров - Высота снежного покрова, см. При наведении курсора мыши на число - состояние снежного покрова и степень покрытия местности в баллах.